Wind_Speed
11 10 11 12 11 12 14 15 15 15 16 17 16 16 15 14 14 13 11 10 10 10 10 11 9 7 7 6 6 6 8 7 5 5 5 5 4 3 7 8 9 11 11 11 10 10 8 7 5 3 1 1 1 2 4 3 3 2 2 2 2 2
11 10 11 11 12 13 14 14 15 15 16 16 17 16 14 13 12 12 11 9 8 8 8 8 9 7 6 6 6 5 7 6 5 5 3 4 5 5 6 8 10 10 10 10 10 9 8 7 6 4 2 1 2 4 4 4 3 2 2 3 2 2
11 11 10 9 10 12 12 12 13 13 14 13 15 15 13 12 12 11 11 10 8 6 7 6 7 7 5 6 6 5 7 7 6 6 4 3 5 7 5 7 11 11 9 8 8 8 8 7 6 5 3 3 4 4 4 4 4 3 2 3 2 1
11 11 10 9 9 10 9 9 10 10 11 11 11 13 13 12 12 11 10 10 8 6 6 5 5 5 4 5 5 5 7 8 8 7 6 5 6 8 7 7 10 11 9 8 8 8 8 7 6 5 4 4 4 3 3 5 4 3 2 3 1 1
10 10 9 9 9 9 9 8 8 8 9 9 9 10 12 12 12 11 9 9 8 7 6 5 4 5 5 5 4 4 5 7 9 9 7 7 7 8 8 8 9 11 11 9 8 8 7 7 7 6 5 4 4 3 4 5 4 3 3 3 2 1
8 8 8 8 8 8 9 8 8 8 8 8 9 10 11 11 11 10 9 7 7 7 6 5 5 5 5 4 3 4 6 6 7 8 7 7 7 7 8 9 9 11 12 10 9 8 7 7 7 7 6 5 4 4 5 6 5 4 3 3 2 2
7 7 7 7 7 8 8 8 7 8 8 8 9 9 10 10 9 9 8 7 7 7 6 6 6 6 4 3 3 4 6 7 7 7 7 7 6 6 7 7 8 10 11 11 10 9 8 7 7 8 7 6 6 5 6 7 6 4 4 4 3 2
7 7 7 6 7 7 7 7 8 8 8 9 10 9 9 9 9 8 8 7 6 6 6 6 7 6 4 4 3 3 5 7 8 8 7 7 6 6 6 6 7 9 9 10 9 9 9 8 7 8 8 8 7 6 6 7 7 5 4 4 3 2
7 7 6 5 5 5 6 6 7 8 7 9 10 9 9 8 8 9 9 9 9 8 7 7 7 6 4 4 4 4 5 7 8 8 7 6 6 6 6 6 7 8 9 8 8 9 10 10 9 9 9 9 9 8 7 7 7 7 5 4 4 3
7 6 5 4 3 2 3 4 6 7 7 8 8 9 9 8 7 7 8 9 10 10 9 8 7 6 5 5 5 5 7 9 9 9 8 6 6 6 6 7 8 9 9 8 9 9 9 11 11 10 10 10 10 9 9 9 8 8 7 5 5 5
7 6 5 4 3 2 2 3 4 5 6 7 7 8 8 7 5 4 5 7 8 9 9 9 8 6 6 7 6 6 8 10 11 11 10 8 5 5 4 5 7 9 9 10 10 9 9 10 11 10 10 10 11 11 10 9 9 8 7 7 6 6
7 6 5 4 3 3 3 3 3 4 5 6 7 7 7 6 4 4 4 5 5 6 8 8 7 6 7 8 7 7 8 10 12 13 12 9 6 5 4 4 6 8 9 10 9 9 8 8 9 9 9 10 11 12 11 10 10 9 8 7 7 6
6 5 5 3 2 3 3 3 3 3 4 5 6 6 6 6 5 5 5 4 4 6 7 7 6 5 6 7 6 6 6 10 14 16 13 10 7 6 6 6 7 9 9 9 8 8 8 7 7 7 7 8 10 11 11 11 11 11 9 7 8 7
6 5 4 2 1 1 2 3 3 3 3 4 5 4 4 5 5 5 4 4 4 5 5 5 4 3 3 4 5 4 5 8 13 15 12 10 9 8 9 7 8 9 8 8 7 6 6 7 7 6 6 6 8 9 10 12 11 11 10 8 8 8
7 5 3 2 1 1 1 2 3 3 2 2 3 3 2 3 4 5 4 3 3 3 3 2 1 0 1 3 4 4 5 7 10 14 12 10 9 9 9 7 7 8 6 6 6 6 6 6 6 6 6 6 6 7 9 11 12 11 11 10 9 9
7 6 4 3 2 1 2 2 2 3 2 1 2 3 3 3 3 3 3 3 1 1 1 2 2 2 1 2 3 3 5 5 9 14 14 11 9 8 7 5 6 5 5 5 4 5 5 4 4 4 6 7 6 6 8 10 11 12 11 11 11 9
8 7 5 5 4 3 3 3 3 3 2 1 1 2 1 2 2 2 2 2 1 1 2 3 3 2 2 0 2 3 4 4 9 14 13 11 10 9 8 6 4 3 2 3 3 3 2 4 5 5 7 8 6 6 7 8 10 11 11 11 11 10
9 8 7 6 5 4 4 3 3 3 3 2 1 1 0 1 2 2 2 3 2 3 3 3 3 3 2 1 0 2 3 3 8 14 13 11 10 10 10 8 5 3 2 4 5 5 4 4 5 6 8 9 8 7 6 7 8 9 11 11 11 10
10 9 8 7 6 5 4 3 3 3 3 3 2 1 0 1 1 1 2 2 2 2 2 3 3 2 2 2 1 1 2 2 4 9 11 11 11 10 9 7 6 7 7 8 9 8 7 5 6 7 8 7 9 10 7 6 7 9 10 10 11 11
10 10 9 8 6 5 5 4 4 4 4 3 3 2 1 1 1 1 2 3 3 3 3 3 3 2 1 1 1 1 2 1 2 5 6 8 11 11 9 7 7 9 9 10 11 10 8 6 5 7 9 8 10 11 9 7 7 8 9 9 10 11
11 10 9 8 6 5 5 5 4 4 4 4 3 3 2 1 2 3 4 4 4 4 3 3 3 2 1 1 1 2 3 3 3 4 4 4 7 9 10 9 8 10 10 10 12 11 9 6 3 3 5 9 11 11 10 9 9 9 7 8 9 10
12 11 10 9 7 6 4 4 4 4 4 4 4 3 3 4 4 5 6 5 5 4 3 3 3 3 2 2 1 1 3 4 5 6 6 5 4 6 8 8 7 8 10 11 11 10 9 6 4 2 1 5 7 9 10 9 9 9 5 5 8 9
13 12 11 9 8 7 6 4 4 5 4 5 5 4 5 5 5 5 6 6 6 6 5 4 4 4 3 3 2 2 3 3 4 5 6 6 4 4 5 6 6 7 8 10 10 9 9 8 6 3 1 1 3 3 5 6 6 7 6 8 10 10
14 13 11 11 9 8 8 7 6 6 6 6 6 6 6 6 5 5 6 7 7 7 6 6 5 5 4 4 3 3 4 5 5 4 5 5 4 2 2 3 3 5 7 8 8 7 7 9 9 6 3 1 1 1 1 1 2 4 8 9 10 11
15 13 12 11 10 9 10 9 8 8 8 7 7 6 6 5 5 4 5 6 7 7 7 7 6 6 6 5 5 5 5 5 6 5 5 5 5 3 1 1 0 2 4 4 4 3 3 5 8 9 6 2 1 1 0 0 0 3 7 7 8 11
15 14 13 12 11 11 11 11 11 10 9 8 7 6 5 5 5 4 5 6 6 7 7 7 8 8 8 7 7 6 6 6 6 6 6 5 5 4 4 3 3 2 2 2 1 2 2 2 4 7 8 6 4 3 1 1 0 1 4 7 7 8
16 14 14 13 13 12 12 12 12 11 9 8 7 7 6 6 6 5 6 6 7 7 7 8 8 8 8 8 8 8 7 7 7 7 7 6 6 5 5 5 5 5 4 5 4 1 2 1 1 4 6 7 5 4 3 3 2 1 1 4 6 6
17 16 16 15 15 13 12 12 12 11 10 8 7 8 8 7 7 6 6 6 6 7 7 7 8 8 9 9 9 9 8 8 8 7 7 7 7 6 7 7 7 6 5 5 6 4 3 3 1 1 2 4 3 3 3 3 1 2 2 2 3 4
18 18 18 18 17 15 13 13 12 12 11 9 7 7 8 7 7 7 7 6 6 6 7 7 8 9 9 10 10 10 10 9 9 8 8 8 8 8 7 7 7 8 8 7 7 5 4 4 4 3 2 2 2 1 2 3 3 0 2 2 2 2
19 19 19 20 19 16 15 13 12 12 12 11 9 7 7 8 8 7 7 7 6 6 6 7 8 9 10 10 10 10 10 10 10 9 9 9 9 8 8 8 8 8 8 8 8 8 7 5 5 4 4 4 4 4 2 1 2 3 2 3 4 3
20 19 19 21 21 18 16 15 13 13 13 12 11 9 8 8 8 8 7 7 7 6 7 7 8 9 9 9 9 9 10 10 10 10 9 9 8 8 8 8 8 8 8 8 7 8 7 6 5 4 5 4 5 5 4 3 3 4 3 3 4 5
21 21 20 22 22 20 18 16 15 14 14 14 12 11 9 9 9 9 8 8 7 7 7 7 7 8 8 8 8 8 9 9 9 9 9 8 8 8 8 7 7 7 7 7 7 6 6 6 5 4 4 4 4 4 4 4 3 3 3 3 4 5
23 23 22 22 23 21 19 18 16 15 15 14 13 12 10 9 9 9 8 8 8 7 7 8 7 8 8 7 7 7 8 8 9 9 9 8 8 8 8 8 8 8 7 7 7 6 6 6 5 4 4 3 3 3 3 4 4 3 3 4 5 5
23 24 23 22 22 21 20 19 18 16 15 15 14 13 11 10 9 9 8 9 8 7 7 8 8 8 9 8 6 7 7 8 8 9 9 8 8 7 7 7 7 7 7 7 7 7 7 6 6 5 4 3 3 3 4 4 4 4 4 4 5 6
21 22 23 22 21 21 20 19 18 17 15 15 15 14 13 11 10 9 9 9 8 7 6 7 7 8 9 9 7 7 8 8 8 8 8 8 7 7 6 6 6 6 6 6 6 5 5 5 5 4 4 3 3 3 4 4 5 5 5 5 5 6
20 20 21 21 20 21 21 17 16 16 15 14 14 14 14 12 11 11 10 10 10 9 7 7 8 9 10 10 10 9 8 8 8 8 7 7 6 6 6 5 5 5 5 5 5 4 4 4 4 3 3 3 3 3 3 4 5 5 5 5 6 6
18 16 17 19 18 19 19 16 15 17 17 16 16 15 14 14 14 13 12 11 11 11 10 9 10 11 12 11 11 11 10 9 9 8 8 7 6 6 6 6 5 5 5 4 4 4 3 3 3 2 3 3 3 3 3 4 4 5 5 5 5 6
Wind_Direction
145 149 146 153 160 163 168 173 177 182 186 187 186 183 182 185 180 181 188 191 185 165 158 154 149 155 158 168 176 175 179 176 187 190 176 195 223 220 201 200 202 202 202 200 200 203 213 210 197 201 173 110 324 207 191 179 174 157 127 117 118 171
142 147 147 148 151 160 170 175 175 178 187 190 192 191 185 186 184 187 189 192 191 176 185 178 161 171 176 183 190 182 189 194 201 205 188 195 217 224 205 195 198 200 201 202 200 200 208 209 203 205 216 250 244 213 187 175 184 171 143 116 117 197
144 145 146 144 144 155 164 169 168 169 178 184 192 193 189 188 191 197 193 185 190 196 218 212 169 173 183 190 204 207 211 216 211 214 215 191 205 220 211 193 194 194 195 194 191 196 201 199 202 204 220 237 220 215 186 176 187 175 159 125 122 190
152 149 148 145 143 149 156 161 159 156 165 174 185 191 194 197 201 207 199 187 194 209 219 218 193 193 200 201 216 221 222 225 219 222 221 200 204 214 207 195 192 188 187 188 189 199 205 198 198 200 215 227 217 219 194 188 190 179 158 135 139 135
157 156 153 153 154 153 155 158 155 154 159 169 179 186 193 197 201 204 201 196 200 209 211 209 211 219 223 219 220 223 229 230 225 227 224 210 208 205 194 190 189 187 189 194 197 198 200 201 202 204 210 220 220 221 207 199 195 187 161 148 175 138
162 162 160 160 164 162 164 161 155 157 159 167 178 186 191 193 196 197 199 203 199 203 211 213 222 231 236 234 236 247 239 231 233 235 230 218 209 199 191 187 186 192 198 199 202 200 196 201 208 214 213 215 223 219 212 206 199 196 182 170 188 177
164 165 166 168 170 170 175 171 160 161 167 173 181 192 196 194 197 197 198 201 199 203 215 223 230 235 239 236 250 269 244 226 233 234 232 224 211 206 206 200 192 197 206 206 206 207 203 200 207 220 220 219 226 224 217 212 204 199 193 186 198 199
161 162 167 174 176 176 178 176 170 167 175 180 182 197 203 200 203 203 202 204 204 209 221 231 235 235 230 227 247 275 237 221 228 227 228 227 219 220 222 220 206 199 206 209 208 212 214 207 201 213 222 225 227 226 224 220 213 206 200 194 207 211
159 158 162 170 179 183 177 178 178 173 176 179 183 198 204 203 205 206 207 211 213 215 226 238 238 234 230 233 249 256 218 214 226 224 224 226 224 231 234 231 218 205 199 197 202 212 221 218 208 207 217 228 230 229 225 222 219 212 207 200 207 213
162 163 163 168 181 191 186 192 186 176 176 179 185 194 197 203 207 207 211 219 222 220 228 242 241 236 243 250 255 251 224 215 220 219 216 215 228 241 242 237 222 209 199 196 202 208 220 226 222 214 214 224 230 231 227 222 221 216 215 211 208 210
169 169 176 180 181 189 203 217 204 187 185 187 190 191 195 203 202 197 199 215 225 224 230 240 241 240 254 262 262 259 243 228 219 218 213 202 219 238 237 236 218 206 201 202 203 202 214 229 230 225 218 222 226 228 227 224 222 219 221 221 218 217
171 176 194 198 183 192 204 213 218 206 194 190 195 197 198 195 190 194 194 201 218 232 235 239 246 251 260 269 270 261 256 242 220 213 214 200 201 219 215 214 201 198 201 197 194 195 208 229 237 233 226 226 228 228 226 225 225 224 225 228 231 230
179 184 203 219 200 200 196 195 205 209 198 191 199 203 203 198 193 205 205 192 209 246 249 248 254 254 255 266 270 259 260 253 222 208 210 199 191 200 194 192 186 184 189 187 182 190 203 221 237 237 230 230 232 233 230 228 229 230 231 232 239 242
185 188 198 217 223 202 185 180 183 189 200 203 201 192 201 210 204 206 200 177 196 234 245 248 253 243 244 260 273 265 258 256 221 203 205 200 194 191 182 181 178 172 178 184 182 194 208 220 235 238 233 231 229 232 233 233 232 233 235 238 244 250
182 186 184 189 194 167 143 157 163 159 164 200 202 170 147 183 191 197 197 186 204 231 250 271 290 267 257 267 277 265 244 242 211 198 203 202 195 188 184 176 163 164 176 189 200 217 223 228 241 243 239 237 229 227 229 233 235 235 237 242 247 249
178 179 169 169 157 130 124 130 129 126 125 130 202 185 145 147 153 166 185 193 226 268 294 335 18 35 48 269 272 251 233 221 196 199 204 202 194 180 181 171 151 158 174 189 224 234 228 256 279 276 264 249 230 226 232 234 234 237 239 242 246 248
172 169 163 162 153 147 140 134 124 116 117 115 183 198 179 180 161 129 143 153 116 58 33 32 36 44 67 294 262 241 232 203 198 206 202 193 189 180 176 173 158 146 149 182 243 264 277 322 317 313 304 284 253 232 237 240 233 234 236 237 240 243
165 160 158 159 158 156 147 144 142 128 124 125 126 136 164 179 171 152 118 111 89 69 55 53 53 58 64 59 177 230 225 196 205 211 204 188 184 188 191 191 190 199 232 235 251 270 281 313 320 316 314 306 288 258 239 240 236 232 232 232 234 238
162 160 158 162 166 165 165 169 163 153 145 142 132 117 115 131 159 168 108 89 70 60 49 51 56 63 69 75 97 216 223 195 191 197 200 200 199 203 204 202 209 226 244 254 256 259 259 274 302 308 313 306 287 276 261 246 240 233 231 235 237 241
164 163 161 166 176 180 179 175 172 169 156 146 132 116 91 47 64 70 69 66 60 49 37 41 39 44 71 98 115 167 203 190 145 157 175 200 213 217 218 216 222 232 241 251 253 248 244 253 283 304 315 309 289 283 280 277 271 249 236 243 250 250
166 167 167 171 177 183 177 168 171 173 156 146 137 132 128 93 69 71 69 66 60 46 40 44 33 39 57 86 147 162 160 156 161 169 165 179 209 218 225 229 233 239 238 237 240 238 233 229 242 281 314 315 302 292 282 276 279 269 249 250 261 263
168 170 175 175 173 179 179 166 162 159 149 139 129 121 117 107 99 89 79 69 61 55 58 62 55 59 61 53 75 135 130 144 159 170 171 172 191 207 220 225 228 236 234 227 226 228 227 208 191 215 307 321 305 294 281 268 265 269 270 274 285 285
172 173 179 181 175 172 168 152 142 140 131 125 117 100 97 104 105 95 81 71 69 69 71 72 68 68 68 63 58 64 73 97 127 146 156 161 175 200 216 212 207 222 226 219 213 216 218 200 191 198 161 294 286 291 283 275 264 273 309 319 307 295
174 174 181 184 176 165 160 151 137 131 122 117 120 113 109 110 107 95 81 75 75 72 70 69 68 70 78 81 78 77 73 73 79 100 124 124 120 146 216 206 204 218 220 215 209 211 213 204 207 207 173 189 259 261 269 276 263 290 311 315 305 301
173 174 182 185 177 166 161 156 145 139 133 127 132 135 133 126 117 103 86 81 81 74 70 70 69 71 80 88 90 86 83 83 77 77 88 95 96 92 83 81 220 209 200 204 207 215 220 214 218 216 208 202 226 245 288 64 151 295 282 274 292 302
171 174 182 187 184 174 165 162 157 154 152 149 149 148 140 130 121 103 88 88 87 82 80 79 77 78 82 88 92 91 87 87 85 79 80 86 93 90 79 63 30 39 71 67 143 207 210 218 221 216 223 231 232 236 166 147 227 293 254 252 274 290
171 174 182 188 190 182 174 172 169 166 162 161 155 140 131 123 120 110 96 95 93 90 89 87 85 84 87 89 91 91 88 87 87 86 85 86 89 85 79 76 59 51 50 45 48 104 147 124 236 216 224 233 234 238 212 203 230 229 240 249 252 274
173 176 183 190 193 190 183 179 178 172 167 167 155 136 135 131 126 121 109 101 99 95 91 88 89 91 93 93 92 89 86 85 85 85 88 88 87 86 83 81 76 70 68 62 57 65 87 75 53 168 204 231 220 203 198 188 210 241 253 254 237 265
177 180 184 190 194 195 191 185 183 176 169 169 160 145 146 143 136 132 124 115 110 105 96 90 92 97 99 96 92 89 86 84 82 80 84 87 87 89 88 84 80 78 79 79 72 68 68 55 42 42 27 327 302 257 181 140 106 313 259 265 261 249
181 182 186 191 195 198 196 191 188 180 172 170 166 162 157 150 150 148 140 134 128 123 114 104 103 105 105 100 95 91 88 85 84 82 83 86 89 89 89 88 85 83 82 82 79 75 71 61 49 34 20 5 353 347 322 175 67 15 338 288 288 282
183 186 188 192 196 199 200 198 195 187 179 175 173 175 172 165 165 164 158 152 146 141 133 126 122 118 114 108 101 95 92 89 87 85 84 84 86 88 89 90 88 86 84 81 80 79 73 67 61 46 32 21 11 10 357 346 7 1 341 316 307 298
185 190 191 194 197 200 201 201 200 194 186 181 180 185 187 182 179 176 172 165 157 155 151 147 143 136 132 123 113 106 100 96 92 90 88 85 84 85 87 89 88 86 84 82 80 79 74 67 60 48 38 26 13 13 9 5 5 351 327 315 306 292
188 192 193 195 196 199 203 204 204 201 194 188 187 192 196 193 191 187 182 176 170 170 168 166 163 156 151 142 128 119 110 104 102 99 96 93 89 86 86 87 88 87 83 82 79 78 76 69 62 51 35 22 10 1 0 359 347 333 324 303 291 288
191 192 194 196 197 199 204 207 207 206 200 195 191 193 199 199 197 196 189 184 183 185 182 179 178 170 163 157 144 132 122 113 111 109 105 101 95 90 88 87 87 88 84 81 79 77 76 70 62 54 36 14 359 350 341 337 326 314 310 302 296 300
192 192 193 195 196 199 205 209 210 212 208 202 197 195 199 202 200 201 197 190 189 192 192 188 184 176 170 166 155 143 134 124 119 116 110 107 102 95 91 88 85 84 83 81 81 77 75 70 59 50 38 15 348 339 330 324 318 308 305 303 299 301
193 192 193 194 195 199 204 207 210 214 214 210 205 200 200 201 201 202 201 199 198 195 194 191 185 178 175 172 164 155 147 139 132 127 120 115 111 105 100 95 90 87 83 81 81 77 72 68 60 46 28 4 333 327 326 320 314 309 307 300 294 291
193 191 190 191 193 195 196 201 210 216 218 217 216 211 204 202 205 208 209 206 203 197 192 190 185 180 179 176 171 165 158 153 146 140 137 131 127 123 117 111 106 101 97 94 88 78 68 61 55 41 22 358 332 323 324 318 310 308 305 297 290 285
Height
810 811 812 812 813 813 815 816 818 819 820 820 821 822 823 824 825 826 826 826 829 830 831 831 832 832 832 832 833 833 834 834 835 836 836 836 837 838 839 840 840 841 841 842 843 844 845 845 846 846 847 847 847 847 847 847 848 848 847 847 848 848
810 811 812 812 813 813 815 816 818 819 819 820 821 822 823 823 824 825 825 826 828 829 830 831 831 832 832 832 832 833 834 834 835 836 836 837 837 838 839 840 841 841 841 842 843 845 845 846 846 847 847 847 847 847 847 848 848 848 848 848 848 848
810 811 812 813 813 814 816 816 817 818 819 820 821 822 823 823 824 824 825 826 827 827 828 829 830 831 832 831 831 832 834 835 836 836 836 837 837 838 839 840 841 841 842 843 844 845 846 846 847 847 847 848 848 848 848 848 849 848 848 848 848 848
810 811 811 812 813 814 815 816 816 818 819 820 821 822 822 823 824 824 824 826 826 827 828 828 829 830 830 831 831 832 834 835 836 836 836 837 837 837 838 839 840 841 842 843 844 845 846 847 847 847 848 848 848 848 848 848 849 848 849 849 848 848
809 810 811 812 813 814 815 816 816 817 818 819 820 821 822 823 823 824 824 825 826 827 828 828 828 829 830 831 832 833 834 835 836 836 837 837 838 838 838 839 840 841 842 843 844 845 846 846 847 848 848 848 848 848 849 849 849 849 849 849 849 849
810 810 811 812 812 813 814 815 816 817 818 819 820 821 822 822 823 824 825 825 826 827 827 827 828 828 830 831 832 833 834 835 836 837 837 837 838 838 839 839 840 841 841 842 843 845 846 847 847 848 848 848 848 848 849 849 849 849 849 850 849 849
810 810 811 812 812 813 814 815 816 816 817 819 820 820 821 822 823 824 825 826 826 827 827 827 828 829 830 831 832 833 834 835 835 836 837 837 837 838 839 839 839 840 841 842 843 844 845 846 847 848 848 848 848 848 848 849 849 849 850 850 849 849
810 810 811 812 812 813 814 814 815 816 817 818 819 820 820 821 822 823 824 826 826 826 827 827 828 829 830 831 832 832 833 834 834 835 836 836 837 838 839 839 840 840 841 842 843 844 845 846 847 847 848 848 848 848 848 848 849 849 849 850 850 849
810 811 811 812 812 813 813 814 815 816 817 817 819 820 820 820 822 823 824 825 826 826 827 827 828 829 830 831 831 831 832 833 833 834 834 835 836 837 838 839 839 840 841 841 842 843 844 845 846 847 847 847 847 847 847 848 848 848 849 849 850 849
810 811 812 812 813 813 814 814 815 816 817 817 818 819 820 820 821 822 823 824 825 826 826 827 828 829 830 831 831 831 831 832 833 834 834 835 836 837 837 838 839 840 840 841 842 842 843 844 845 845 846 846 846 846 847 847 847 848 848 849 849 849
810 811 812 812 813 814 814 815 815 816 817 817 818 818 819 820 821 821 822 823 824 825 826 827 828 828 829 830 830 831 831 831 832 833 833 834 835 836 837 838 839 840 840 840 841 841 842 843 843 844 845 845 845 845 846 846 847 847 848 848 848 848
810 811 812 812 813 814 814 815 815 816 816 817 818 818 819 819 820 820 821 822 823 824 825 826 827 828 829 829 830 830 830 830 830 831 832 834 835 836 837 838 838 839 840 840 840 841 841 842 842 843 844 844 844 845 845 846 846 847 847 847 847 848
810 811 812 812 813 814 814 815 816 816 816 817 817 818 818 819 819 820 821 821 823 824 825 826 826 827 828 829 829 829 829 828 829 830 831 834 835 836 837 837 838 839 839 840 840 840 841 841 842 842 843 843 843 844 845 845 846 846 846 846 847 847
810 811 811 813 813 814 814 815 815 816 816 817 817 817 817 818 819 820 821 822 823 824 825 826 826 827 827 828 828 829 828 827 828 830 832 834 835 836 837 837 838 838 839 839 840 840 841 841 841 841 841 842 842 843 843 844 845 846 846 846 846 846
809 811 812 813 813 814 815 815 815 816 816 817 817 817 817 818 818 820 821 822 823 824 824 825 826 826 826 827 827 828 828 828 828 830 831 833 834 835 836 836 836 837 838 839 839 840 840 841 841 840 841 841 841 841 842 843 843 844 845 845 845 845
809 811 812 813 814 814 815 815 816 816 817 817 817 818 818 818 819 820 821 821 822 823 823 824 824 825 826 826 827 827 827 828 828 829 830 831 834 835 835 835 835 836 837 838 839 839 840 841 841 841 841 841 840 840 841 841 842 843 843 844 844 844
809 810 812 813 814 814 815 816 816 817 817 817 818 818 818 818 819 820 821 822 822 822 823 824 824 825 825 826 826 826 826 827 828 828 829 831 832 833 834 834 835 836 837 837 838 839 839 840 841 842 841 841 840 840 840 840 841 841 842 843 843 843
808 810 811 812 814 814 815 816 816 817 817 818 818 818 818 819 820 821 822 822 822 823 823 824 824 824 825 826 826 825 826 827 827 828 829 830 831 832 833 833 834 835 836 836 837 838 839 840 841 841 841 841 840 839 839 839 840 840 841 841 841 842
808 809 810 812 813 814 815 816 816 817 818 818 818 818 819 819 820 821 822 822 822 823 824 824 824 824 825 825 825 825 825 826 827 827 829 830 831 832 832 833 833 834 835 835 836 836 837 838 839 840 840 840 840 839 838 838 839 839 839 840 840 840
807 808 810 811 813 813 814 815 816 817 817 818 818 819 820 820 820 821 822 823 823 824 824 824 824 824 825 825 825 825 824 825 826 826 827 828 830 830 831 832 832 833 834 834 834 835 836 837 838 838 839 839 839 838 837 836 837 838 838 838 839 839
806 808 809 811 812 813 813 814 815 816 817 818 819 819 820 821 821 822 823 823 824 824 824 824 824 824 824 825 825 825 825 825 826 826 827 827 828 829 830 831 831 832 833 833 833 834 835 836 837 838 838 838 837 837 837 837 837 837 837 837 838 838
806 807 809 810 811 813 813 814 815 816 816 817 818 819 820 821 822 822 823 824 824 825 825 825 825 825 825 825 825 825 825 826 826 826 827 827 828 829 829 830 830 831 831 832 832 833 834 835 836 837 837 838 837 836 836 836 837 837 836 837 837 837
805 807 809 810 811 812 813 814 815 816 817 817 818 820 820 821 822 823 824 824 825 825 825 825 825 825 825 825 826 826 826 826 826 827 827 827 828 829 829 829 829 830 831 831 831 832 833 833 834 835 837 838 838 836 835 834 835 835 835 836 837 836
804 806 808 809 810 812 813 814 815 816 817 818 819 820 821 822 822 823 824 824 825 825 826 826 826 826 826 826 827 827 827 827 827 827 828 828 828 829 829 829 829 830 831 831 831 832 832 832 833 835 836 837 838 838 837 835 834 834 834 836 837 837
803 806 808 809 810 811 812 814 815 816 818 818 819 820 821 822 823 823 824 825 825 826 826 826 827 827 827 827 828 828 828 828 828 828 828 828 829 829 829 829 829 830 830 831 831 832 832 832 833 834 835 836 838 838 837 836 835 834 834 835 837 837
803 805 807 809 810 811 812 813 814 815 817 817 818 820 820 822 823 823 824 825 825 826 826 827 827 828 828 828 829 829 829 829 829 829 829 829 830 830 830 830 830 830 830 830 831 831 832 832 833 833 834 834 836 836 835 836 837 836 836 836 836 835
802 804 807 808 809 810 811 812 813 814 815 816 817 819 820 822 823 823 824 825 826 826 827 827 828 829 829 829 830 830 830 830 830 830 830 830 830 831 831 831 831 831 831 831 831 831 832 833 833 833 833 834 834 834 835 836 837 837 837 837 835 835
800 803 805 807 808 810 811 811 812 813 814 816 816 818 821 822 823 824 825 825 826 827 827 828 829 829 830 830 830 831 831 831 831 831 831 831 831 831 831 832 832 832 832 832 832 832 833 834 834 833 833 833 834 834 834 835 835 836 837 837 836 835
799 801 803 805 807 808 810 811 812 812 813 815 816 818 820 821 823 824 825 826 826 827 828 828 829 829 830 831 831 832 832 832 832 832 832 832 832 832 832 832 832 832 833 833 833 834 834 834 834 834 834 833 833 833 834 834 835 836 836 837 837 835
797 800 801 803 806 807 809 810 811 811 812 814 816 817 819 821 822 823 825 826 827 828 828 829 829 830 830 831 831 832 832 832 833 833 833 833 833 833 833 833 833 833 833 834 834 834 835 835 835 835 834 834 833 833 833 833 835 836 836 836 835 834
795 798 800 802 804 806 807 809 810 811 811 813 815 817 818 819 821 823 824 825 826 827 828 829 830 830 831 831 832 832 832 833 833 833 834 834 834 834 834 834 834 834 835 835 835 835 835 836 836 835 835 835 834 834 835 835 835 837 836 836 835 834
794 796 798 800 802 804 806 807 809 810 811 812 813 815 817 818 820 821 823 824 826 827 828 829 830 830 831 831 832 832 833 833 833 834 834 834 834 834 835 835 835 836 836 836 836 837 837 836 836 836 835 835 835 835 835 836 836 837 837 837 836 834
791 793 795 797 800 802 804 805 807 809 810 811 812 814 816 817 819 820 822 823 825 826 827 828 829 830 831 831 832 832 833 833 834 834 834 834 835 835 835 836 836 836 837 837 837 837 837 837 837 837 836 836 836 836 836 836 837 837 837 837 836 834
788 790 793 795 798 800 802 804 806 807 809 810 811 813 814 816 818 819 820 822 824 825 826 827 828 829 830 831 832 832 833 834 834 834 835 835 835 835 836 836 836 837 837 837 838 838 838 838 837 837 837 837 837 837 837 836 837 836 836 836 835 834
786 788 790 793 796 798 800 802 804 806 808 809 810 811 813 814 816 817 819 821 822 823 824 826 827 828 829 830 831 832 833 834 834 835 835 835 836 836 836 837 837 837 837 838 838 839 839 838 838 838 838 838 837 837 837 837 836 836 836 835 834 834
784 786 789 791 794 796 799 801 803 805 806 808 809 810 811 812 814 816 817 819 821 822 823 824 826 827 828 829 830 831 833 833 834 835 835 836 836 837 837 837 838 838 838 839 839 839 840 840 840 839 839 839 838 838 838 837 836 836 835 835 834 834
783 785 787 790 792 794 797 800 802 803 805 806 807 808 809 810 811 813 815 817 818 820 821 822 824 825 827 828 829 830 832 832 833 834 835 836 836 836 837 837 838 838 838 839 839 840 840 840 840 840 840 840 839 839 838 837 837 836 835 834 834 833